Flag for Canada Weather past 2 weeks in Dawson Creek, British Columbia, Canada

Now
75 °F

Mild.


Feels Like: 77 °F
Forecast: 48 / 76 °F
Wind: 6 mph from East

Location: Dawson Creek Airport

Current Time: Jul 31, 2014 at 7:30:56 PM

Latest Report: Jul 31, 2014 at 6:00 PM


Visibility: 9 mi

Pressure: 30.16 "Hg

Humidity: 29%

Dew point: 41 °F

Location of Dawson CreekLocation

Historic Weather in Dawson Creek — Graph

°F

Dawson Creek temperature yesterday

Maximum temperature yesterday: 81 °F (at 3:00 PM)
Minimum temperature yesterday: 55 °F (at 2:00 AM)
Average temperature yesterday: 69 °F

Past Weeks' High & Low Weather Summary

 TemperatureHumidityPressure
High88 °F (Jul 29, 4:00 PM)100% (Jul 18, 2:00 AM)30.22 "Hg (Jul 18, 2:00 AM)
Low43 °F (Jul 18, 3:00 AM)22% (Jul 29, 4:00 PM)29.54 "Hg (Jul 18, 10:00 PM)
Average62 °F67%29.93 "Hg
* Reported Jul 16 6:00 PM — Jul 31 6:00 PM, Dawson Creek, Weather by CustomWeather, © 2014

Note: Actual official high and low records may vary slightly from our data, if they occured in-between our weather recording intervals... More about our weather records

Advertising

Dawson Creek weather history for previous 24 hours

 ConditionsComfort  
Time TempWeatherWind HumidityBarometerVisibility
6:00 PM
Jul 31
75 °FMild.6 mph29%30.16 "Hg9 mi
5:00 PM75 °FMild.3 mph29%30.16 "Hg9 mi
4:00 PM75 °FMild.6 mph27%30.15 "Hg9 mi
3:00 PM77 °FPleasantly warm.8 mph24%30.16 "Hg9 mi
2:00 PM75 °FMild.9 mph27%30.15 "Hg9 mi
1:00 PM75 °FMild.9 mph29%30.16 "Hg9 mi
12:00 PM73 °FMild.12 mph36%30.16 "Hg9 mi
11:00 AM68 °FMild.6 mph49%30.17 "Hg9 mi
10:00 AM68 °FMild.9 mph49%30.16 "Hg9 mi
9:00 AM64 °FMild.14 mph52%30.16 "Hg9 mi
8:00 AM63 °FMild.3 mph64%30.16 "Hg9 mi
7:00 AM59 °FCool.6 mph68%30.15 "Hg9 mi
6:00 AM54 °FCool.3 mph88%30.15 "Hg9 mi
5:00 AM54 °FCool.5 mph82%30.15 "Hg9 mi
4:00 AM55 °FCool.6 mph82%30.14 "Hg9 mi
3:00 AM55 °FCool.3 mph77%30.13 "Hg9 mi
2:00 AM55 °FCool.No wind82%30.13 "Hg9 mi
1:00 AM55 °FCool.3 mph77%30.14 "Hg9 mi
12:00 AM57 °FCool.6 mph77%30.12 "Hg9 mi
11:00 PM
Jul 30
59 °FCool.2 mph68%30.10 "Hg9 mi
10:00 PM63 °FMild.6 mph64%30.09 "Hg9 mi
9:00 PM66 °FMild.2 mph60%30.08 "Hg9 mi
8:00 PM75 °FMild.8 mph36%30.06 "Hg9 mi
7:00 PM79 °FPleasantly warm.14 mph30%30.05 "Hg9 mi
Weather by CustomWeather, © 2014

See weather overviewHow to use our weather pages